LSGC

Les Eplatures Airport

Airport
ICAO code
LSGC
IATA Code
ZHV
Summary
ICAO Region
EUR
ICAO Territory
Location

La Chaux-de-Fonds, Neuchatel

Serving
Les Eplatures
Elevation
3368 ft
Coordinates
47° 5' 2" N , 6° 47' 34" E
Metar
LSGC 222350Z AUTO 24015G28KT 2600 -SN BKN003 OVC005 01/01 Q1000 RERASN

Les Eplatures Airport is a small international airport near La Chaux-de-Fonds, Switzerland.

Climatology

Humid continental climate (Köppen climate classification Dfb)

Runways

Designator Length Width Surface Rops
6/24 1130 27 ASP No/No

Airport map

Aerial View

SKYbrary Partners:

Safety knowledge contributed by: